This is the latest recevied weather packets stored in our database for station/object SP2WM. If no packets are shown the sender has not sent any weather packets the latest 10 day(s).
| Time | Temp. | Humidity | Pressure | Rain* | Wind** | Luminosity | Snow |
|---|---|---|---|---|---|---|---|
| 1777572633 | 13.89° C | 53% | 1024.4 hPa | 0 mm | - | - | - |
| 1777572033 | 13.89° C | 51% | 1024.4 hPa | 0 mm | - | - | - |
| 1777571437 | 13.89° C | 51% | 1024.4 hPa | 0 mm | - | - | - |
| 1777570835 | 14.44° C | 51% | 1024.3 hPa | 0 mm | - | - | - |
| 1777570234 | 14.44° C | 50% | 1024.3 hPa | 0 mm | - | - | - |
| 1777569636 | 14.44° C | 48% | 1024.4 hPa | 0 mm | - | - | - |
| 1777569038 | 15° C | 48% | 1024.4 hPa | 0 mm | - | - | - |
| 1777568419 | 14.44° C | 47% | 1024.5 hPa | 0 mm | - | - | - |
| 1777567838 | 14.44° C | 47% | 1024.4 hPa | 0 mm | - | - | - |
| 1777567235 | 14.44° C | 47% | 1024.5 hPa | 0 mm | - | - | - |
| 1777566638 | 14.44° C | 47% | 1024.5 hPa | 0 mm | - | - | - |
| 1777566039 | 15° C | 46% | 1024.6 hPa | 0 mm | - | - | - |
| 1777565419 | 15° C | 46% | 1024.7 hPa | 0 mm | - | - | - |
| 1777564820 | 15° C | 45% | 1024.8 hPa | 0 mm | - | - | - |
| 1777564228 | 15° C | 45% | 1024.8 hPa | 0 mm | - | - | - |
| 1777563628 | 15° C | 43% | 1024.9 hPa | 0 mm | - | - | - |
| 1777563027 | 15° C | 43% | 1024.8 hPa | 0 mm | - | - | - |
| 1777562429 | 15.56° C | 42% | 1024.8 hPa | 0 mm | - | - | - |
| 1777561828 | 15.56° C | 42% | 1024.8 hPa | 0 mm | - | - | - |
| 1777561233 | 15° C | 42% | 1024.8 hPa | 0 mm | - | - | - |
| 1777560633 | 15.56° C | 42% | 1024.9 hPa | 0 mm | - | - | - |
| 1777560033 | 15.56° C | 40% | 1025.1 hPa | 0 mm | - | - | - |
| 1777559433 | 16.67° C | 37% | 1025.2 hPa | 0 mm | - | - | - |
| 1777558839 | 16.67° C | 37% | 1025.3 hPa | 0 mm | - | - | - |
| 1777558219 | 18.33° C | 34% | 1025.3 hPa | 0 mm | - | - | - |
* Rain latest hour (hover to see other rain measurements)
** Current wind speed in m/s (hover to see current wind gust speed)